Regional Weather Roundup
Issued by NWS

Home | Current Version | Previous Version | Text Only | Print | Product List | Glossary On
Versions: 1 2 3 4 5 6 7 8 9 10 11 12 13 14 15 16 17 18 19 20 21 22 23 24 25 26 27 28 29 30 31 32 33 34 35 36 37 38 39 40 41 42 43 44 45 46 47 48 49 50
000
ASUS43 KTOP 041459
RWRKS

WEATHER ROUNDUP FOR KANSAS
NATIONAL WEATHER SERVICE GOODLAND KS
1000 AM CDT FRI SEP 04 2015

NOTE:  "FAIR" INDICATES FEW OR NO CLOUDS BELOW 12,000 FEET WITH NO
SIGNIFICANT WEATHER AND/OR OBSTRUCTIONS TO VISIBILITY.

KSZ001>006-013>018-027>032-041>047-041600-
NORTHWEST KANSAS

CITY           SKY/WX    TMP DP  RH WIND       PRES   REMARKS
GOODLAND       SUNNY     77  53  43 NW12      29.93R
HAYS           SUNNY     82  61  47 S21G30    29.87R
HILL CITY      SUNNY     82  60  47 S15G21    29.86S
RUSSELL        SUNNY     83  62  49 S29G35    29.87S
$$

KSZ061>065-074>080-084>089-041600-
SOUTHWEST KANSAS

CITY           SKY/WX    TMP DP  RH WIND       PRES   REMARKS
DODGE CITY     SUNNY     79  59  50 S16G25    29.92S
ELKHART          N/A     77  57  50 W2          N/A
GARDEN CITY    MOSUNNY   76  57  51 S15       29.91R
GREAT BEND     SUNNY     82  63  51 S26G33    29.89F
LIBERAL        SUNNY     81  59  47 S13       29.95R
$$

KSZ066>073-081>083-090>101-041600-
SOUTHEAST KANSAS

CITY           SKY/WX    TMP DP  RH WIND       PRES   REMARKS
CHANUTE        SUNNY     81  69  67 S13       30.01R
COFFEYVILLE    SUNNY     81  69  67 S12       30.00S
HUTCHINSON     SUNNY     83  65  54 S18G24    29.95S
NEWTON         SUNNY     82  64  54 S15G23    30.00R
PARSONS        SUNNY     81  70  69 S10       30.02R
WICHITA INTL   MOSUNNY   82  66  58 S16       29.96S
WICHITA JABRA  SUNNY     80  67  64 S15G22    29.97S
WINFIELD       SUNNY     83  68  60 S10       29.99S
$$

KSZ007>012-019>026-033>040-048>060-102>105-041600-
NORTHEAST KANSAS

CITY           SKY/WX    TMP DP  RH WIND       PRES   REMARKS
CONCORDIA      MOSUNNY   82  64  54 S21G30    29.90F
EMPORIA        SUNNY     79  68  69 S13       29.99R
LAWRENCE       SUNNY     82  69  64 S6        29.98S
MANHATTAN      SUNNY     84  66  54 S12       29.95R
OLATHE IND     MOSUNNY   79  69  71 S9        30.01R
OLATHE EXE     MOSUNNY   77  70  79 S7        30.00S
SALINA         SUNNY     85  65  51 S15G28    29.91F
TOPEKA BILLARD SUNNY     83  69  62 S7        29.98R
TOPEKA FORBES  SUNNY     83  70  64 S9        29.98S
$$


USA.gov is the U.S. government's official web portal to all federal, state and local government web resources and services.